Hourly Data Report for September 21, 2017

All times are specified in Local Standard Time (LST). Add 1 hour to adjust for Daylight Saving Time where and when it is observed.

SAINT JOHN A
NEW BRUNSWICK

45°18'58.000" N
65°53'24.000" W
108.80 m
8104901
71609
YSJ

Download Data

Hourly Data (September 2017)
Hourly Data Report for September 21, 2017
Temp Definition
°C
Dew Point Temp Definition
°C
Rel Hum Definition
%
Wind Dir Definition
10's deg

Wind Spd Definition
km/h
Visibility Definition
km
Stn Press Definition
kPa
Hmdx Definition


Wind Chill Definition


Weather Definition


TIME
00:00 Legend Double Dagger 17.6 16.6 94 4 14 24.1 100.39     LegendNANA
01:00 Legend Double Dagger 17.1 15.9 92 3 22 24.1 100.43     LegendNANA
02:00 Legend Double Dagger 15.8 14.8 93 9 6 24.1 100.43     Mostly Cloudy
03:00 Legend Double Dagger 15.3 13.6 90 2 14 24.1 100.44     LegendNANA
04:00 Legend Double Dagger 13.8 11.0 83 5 13 24.1 100.46     LegendNANA
05:00 Legend Double Dagger 12.6 11.1 91 3 11 24.1 100.50     Mainly Clear
06:00 Legend Double Dagger 13.8 11.9 88 2 21 24.1 100.52     LegendNANA
07:00 Legend Double Dagger 13.8 11.9 88 2 23 24.1 100.57     LegendNANA
08:00 Legend Double Dagger 15.3 11.6 78 3 24 24.1 100.63     Mostly Cloudy
09:00 Legend Double Dagger 17.4 11.6 68 3 21 24.1 100.67     LegendNANA
10:00 Legend Double Dagger 19.2 10.9 58 3 20 24.1 100.68     LegendNANA
11:00 Legend Double Dagger 20.4 10.8 54 2 26 24.1 100.70     Mostly Cloudy
12:00 Legend Double Dagger 21.4 11.4 52 5 22 24.1 100.70     LegendNANA
13:00 Legend Double Dagger 21.9 9.8 46 4 25 24.1 100.64     LegendNANA
14:00 Legend Double Dagger 21.8 11.9 53 9 20 24.1 100.65     Mostly Cloudy
15:00 Legend Double Dagger 21.5 11.4 52 9 21 24.1 100.67     LegendNANA
16:00 Legend Double Dagger 20.5 10.6 52 8 18 24.1 100.69     LegendNANA
17:00 Legend Double Dagger 18.8 8.5 51 8 21 24.1 100.74     Mostly Cloudy
18:00 Legend Double Dagger 16.2 8.7 61 8 13 24.1 100.75     LegendNANA
19:00 Legend Double Dagger 12.7 8.2 74 5 11 24.1 100.77     LegendNANA
20:00 Legend Double Dagger 12.0 7.2 72 4 14 24.1 100.83     Mostly Cloudy
21:00 Legend Double Dagger 9.9 6.6 80 4 10 24.1 100.89     LegendNANA
22:00 Legend Double Dagger 9.2 6.5 83 3 10 24.1 100.92     LegendNANA
23:00 Legend Double Dagger 7.8 6.2 89 4 11 24.1 100.92     Mostly Cloudy

Notes on Data Quality.

Legend

  • E = Estimated
  • M = Missing
  • NA = Not Available
  • ‡ = Partner data that is not subject to review by the National Climate Archives
Date modified: